Location: Baix
(44.7118°N, 4.7648°E)
Time: 15:55:45
(UTC+00:00)

A-11 Canister half - Pass Details

Date: 30 November 2020
Orbit: 1517 x 1683 km, 47.2° (Epoch: 15 January)

Event Time Altitude Azimuth Distance (km) Brightness Sun altitude
Rises 18:22:57 0° 293° (WNW) 4,933 12.6 -24.4°
Reaches altitude 10° 18:26:42 10° 283° (WNW) 3,948 12.1 -25.0°
Maximum altitude 18:34:45 28° 230° (SW) 2,772 10.8 -26.5°
Drops below altitude 10° 18:42:44 10° 176° (S) 3,905 11.1 -27.9°
Sets 18:46:27 0° 165° (SSE) 4,870 11.5 -28.5°
